EW5401 Weather Reports


time (UTC)temp
C
wind
direction
speed
KPH
gust
KPH
rain 1hr
cm
rain 24hr
cm
rain mn
cm
humidity
%
barometer
mb
20260510224528 17 360 0.0 1.6 0.00 0.05 0.05 64 1012.1
20260510223026 17 349 0.0 6.4 0.00 0.05 0.05 65 1012.1
20260510221524 18 335 1.6 6.4 0.00 0.05 0.05 61 1012.0
20260510220027 17 315 0.0 4.8 0.00 0.05 0.05 69 1012.1
20260510214521 17 58 0.0 6.4 0.00 0.05 0.05 68 1011.9
20260510213022 17 63 1.6 6.4 0.00 0.05 0.05 73 1011.8
20260510211537 17 33 3.2 8.0 0.00 0.05 0.05 72 1011.7
20260510210021 16 20 0.0 6.4 0.05 0.05 0.05 77 1011.7
20260510204518 16 339 3.2 9.7 0.05 0.10 0.05 76 1011.5
20260510203021 17 281 1.6 8.0 0.05 0.10 0.05 81 1011.5
20260510201516 17 336 1.6 11.3 0.05 0.10 0.05 77 1011.5
20260510200019 19 271 3.2 8.0 0.00 0.05 0.00 68 1011.1
20260510194519 20 296 1.6 4.8 0.00 0.15 0.00 65 1010.7
20260510193014 20 312 1.6 6.4 0.00 0.15 0.00 65 1010.7
20260510191524 21 244 1.6 14.5 0.00 0.15 0.00 62 1010.6
20260510190013 21 309 1.6 6.4 0.00 0.15 0.00 62 1010.7
20260510184511 20 333 3.2 12.9 0.00 0.25 0.00 65 1011.0
20260510183011 19 273 1.6 14.5 0.00 0.25 0.00 67 1011.0
20260510181509 20 306 1.6 6.4 0.00 0.25 0.00 67 1011.1
20260510180009 20 190 3.2 6.4 0.00 0.25 0.00 65 1010.7
20260510174508 20 232 0.0 9.7 0.00 0.30 0.00 70 1011.0
20260510173007 19 270 1.6 4.8 0.00 0.30 0.00 68 1010.7
20260510171512 19 5 4.8 9.7 0.00 0.30 0.00 69 1010.9
20260510170007 20 263 4.8 12.9 0.00 0.30 0.00 65 1010.9
20260510164510 21 227 3.2 17.7 0.00 0.38 0.00 67 1011.0
20260510163002 20 234 3.2 12.9 0.00 0.38 0.00 69 1011.0
20260510161600 19 277 6.4 14.5 0.00 0.38 0.00 68 1011.2
20260510160125 18 232 3.2 9.7 0.00 0.38 0.00 69 1011.1
20260510154607 18 269 0.0 9.7 0.00 0.41 0.00 73 1011.3
20260510153057 19 308 4.8 11.3 0.00 0.41 0.00 71 1011.3
20260510151555 18 304 4.8 8.0 0.00 0.41 0.00 72 1011.2
20260510150052 17 142 1.6 6.4 0.00 0.41 0.00 77 1011.2
20260510144603 17 207 0.0 8.0 0.00 0.43 0.00 77 1011.2
20260510143047 17 306 1.6 8.0 0.00 0.43 0.00 79 1011.2
20260510141544 16 240 1.6 8.0 0.00 0.43 0.00 81 1011.2
20260510140040 16 162 3.2 9.7 0.00 0.43 0.00 82 1011.3
20260510134542 15 290 0.0 8.0 0.00 0.46 0.00 85 1011.4
20260510133032 14 202 3.2 11.3 0.00 0.46 0.00 86 1011.5
20260510131535 13 220 3.2 11.3 0.00 0.46 0.00 88 1011.6
20260510130025 12 250 0.0 6.4 0.00 0.46 0.00 92 1011.7
20260510124521 12 233 0.0 4.8 0.00 0.46 0.00 92 1011.4
20260510123026 11 250 0.0 3.2 0.00 0.46 0.00 93 1011.3
20260510121520 11 250 0.0 0.0 0.00 0.46 0.00 94 1011.3
20260510120017 11 251 0.0 0.0 0.00 0.46 0.00 93 1011.3
20260510114512 11 251 0.0 0.0 0.00 0.48 0.00 94 1011.2
20260510113017 11 251 0.0 1.6 0.00 0.48 0.00 94 1011.4
20260510111508 11 251 0.0 0.0 0.00 0.48 0.00 94 1011.1
20260510110016 11 251 0.0 0.0 0.00 0.48 0.00 94 1011.2
20260510104506 11 251 0.0 0.0 0.00 0.61 0.00 94 1011.1
20260510103004 11 251 0.0 1.6 0.00 0.61 0.00 94 1010.8
20260510101501 10 223 3.2 8.0 0.00 0.61 0.00 95 1010.7
20260510100100 10 119 0.0 4.8 0.00 0.61 0.00 95 1010.3
20260510094611 10 71 0.0 9.7 0.00 0.84 0.00 95 1010.3
20260510093119 10 225 0.0 6.4 0.00 0.84 0.00 95 1010.1
20260510091600 10 336 1.6 3.2 0.00 0.84 0.00 95 1009.8
20260510090058 10 166 4.8 11.3 0.00 0.84 0.00 95 1009.5
20260510084600 10 316 0.0 4.8 0.00 0.99 0.00 95 1009.8
20260510083057 10 316 0.0 3.2 0.00 0.99 0.00 95 1010.0
20260510081551 10 316 0.0 0.0 0.00 0.99 0.00 95 1010.4
20260510080052 10 316 0.0 0.0 0.00 0.99 0.00 95 1010.6
20260510074550 9 316 0.0 0.0 0.00 1.02 0.00 95 1010.8
20260510073050 9 316 0.0 3.2 0.00 1.02 0.00 95 1010.7
20260510071552 9 316 0.0 0.0 0.00 1.02 0.00 95 1010.8
20260510070045 9 316 0.0 0.0 0.00 1.02 0.00 94 1010.5
20260510064543 9 316 0.0 0.0 0.00 1.02 0.00 94 1010.2
20260510063042 9 316 0.0 0.0 0.00 1.02 0.00 94 1010.2
20260510061542 9 316 0.0 0.0 0.00 1.02 0.00 94 1010.1
20260510060039 10 316 0.0 0.0 0.00 1.02 0.00 94 1010.3
20260510054538 10 316 0.0 0.0 0.00 1.02 0.00 94 1010.5
20260510053052 10 316 0.0 0.0 0.00 1.02 0.00 93 1010.4
20260510051540 10 316 0.0 0.0 0.00 1.02 0.00 93 1010.2
20260510050038 10 200 0.0 3.2 0.00 1.02 0.00 93 1010.2
20260510044533 10 200 0.0 0.0 0.00 1.02 0.00 93 1010.3
20260510043041 10 198 0.0 0.0 0.00 1.02 0.00 93 1010.2
20260510041528 11 198 0.0 0.0 0.00 1.02 0.00 93 1010.6
20260510040033 11 198 0.0 0.0 0.00 1.02 0.00 92 1010.4
20260510034521 11 198 0.0 3.2 0.00 1.02 1.02 92 1010.1
20260510033020 11 204 1.6 6.4 0.00 1.02 1.02 92 1010.3
20260510031523 11 65 0.0 11.3 0.00 1.02 1.02 93 1010.2
20260510030019 11 234 0.0 11.3 0.00 1.02 1.02 93 1010.2
20260510024519 11 218 3.2 6.4 0.00 1.02 1.02 93 1010.3
20260510023021 10 180 0.0 4.8 0.00 1.02 1.02 94 1010.2
20260510021531 10 215 0.0 3.2 0.00 1.02 1.02 94 1010.4
20260510020017 10 214 0.0 3.2 0.00 1.02 1.02 94 1010.3
20260510014519 10 157 0.0 4.8 0.00 1.02 1.02 94 1010.4
20260510013022 10 167 0.0 4.8 0.00 1.02 1.02 93 1010.3
20260510011514 10 207 1.6 9.7 0.00 1.02 1.02 93 1010.5
20260510010014 10 108 0.0 0.0 0.00 1.02 1.02 93 1010.5
20260510004613 10 108 0.0 0.0 0.00 1.02 1.02 92 1010.1
20260510003013 10 108 0.0 0.0 0.00 1.02 1.02 91 1009.8
20260510001513 11 108 0.0 0.0 0.00 1.02 1.02 90 1009.5
20260510000012 11 108 0.0 4.8 0.00 1.02 1.02 89 1009.2
20260509234512 11 201 4.8 12.9 0.00 1.02 1.02 89 1009.0
20260509233011 11 146 0.0 9.7 0.00 1.02 1.02 90 1009.1
20260509231509 11 157 1.6 8.0 0.00 1.02 1.02 91 1009.2
20260509230010 11 178 0.0 8.0 0.00 1.02 1.02 91 1009.2